Tracking 29487 objects as of 11-Sep-2024
HD Live streaming from Space Station
objects crossing your sky now

TITAN 34B AGENA D DEB

Track TITAN 34B AGENA D DEB now!


NORAD ID: 25588
Int'l Code: 1983-078E
Perigee: 1,086.4 km
Apogee: 36,094.2 km
Inclination: 63.3 °
Period: 654.1 minutes
Semi major axis: 24961 km
RCS: Unknown
Launch date: July 31, 1983
Source: United States (US)
Launch site: AIR FORCE WESTERN TEST RANGE (AFWTR)

Note: This is SATELLITE DEBRIS
Your satellite tracking list
Your tracking list is empty




NASA's NSSDC Master Catalog

Two Line Element Set (TLE):
1 25588U 83078E   24253.91055161  .00000143  00000-0 -59864-2 0  9991
2 25588  63.2799 148.0907 7012421 273.3779  15.7221  2.20141630 42733
Source of the keplerian elements: AFSPC